Weather History for KFVE - August, 2013

Change the Weather History Date:

Saturday, August 17, 2013

  Actual Average Record
Temperature  
Mean Temperature 59 °F 63 °F  
Max Temperature 70 °F 72 °F 84 °F (2002)
Min Temperature 48 °F 53 °F 46 °F (2007)
Degree Days  
Heating Degree Days 6    
Month to date heating degree days 73  
Since 1 July heating degree days 124  
Cooling Degree Days 0    
Month to date cooling degree days 2  
Year to date cooling degree days 116  
Growing Degree Days 8 (Base 50)    
Moisture  
Dew Point 48 °F    
Average Humidity 66    
Maximum Humidity 93    
Minimum Humidity 45    
Precipitation  
Precipitation 0.00 in 0.14 in 0.28 in (1998)
Month to date precipitation 5.90 2.13  
Year to date precipitation 23.55 20.19  
Snow  
Snow 0.00 in - - ()
Month to date snowfall 0.0  
Since 1 June snowfall 0.0  
Snow Depth 0.00 in    
Sea Level Pressure  
Sea Level Pressure 30.21 in    
Wind  
Wind Speed 6 mph (NW)    
Max Wind Speed 15 mph    
Max Gust Speed 18 mph    
Visibility 10 miles    
Events      
T = Trace of Precipitation, MM = Missing Value Source: NWS Daily Summary

Daily Weather History Graph

Daily Weather History Graph

Search for Another Location

Airport or City:

Trip Planner

Search our weather history database for the weather conditions in past years. The results will help you decide how hot, cold, wet, or windy it might be!

Date:

Astronomy

Aug. 17, 2013 Rise Set
Actual Time 5:32 AM EDT 7:40 PM EDT
Civil Twilight 4:59 AM EDT 8:14 PM EDT
Nautical Twilight 4:17 AM EDT 8:55 PM EDT
Astronomical Twilight 3:31 AM EDT 9:41 PM EDT
Moon 4:59 PM EDT (8/17) 1:24 AM EDT (8/17)
Length of Visible Light 15h 14m
Length of Day
14h 08m
Waxing Gibbous, 84% of the Moon is Illuminated
Aug 17
Waxing Gibbous
Aug 20
Full
Aug 28
Last Quarter
Sep 5
New
Sep 12
First Quarter

Hourly Weather History & Observations

Time (EDT) Temp. Dew Point Humidity Pressure Visibility Wind Dir Wind Speed Gust Speed Precip Events Conditions
12:53 AM 55.0 °F 48.9 °F 80% 30.17 in 10.0 mi NW 5.8 mph - N/A   Overcast
1:53 AM 54.0 °F 48.0 °F 80% 30.17 in 10.0 mi NW 6.9 mph - N/A   Scattered Clouds
2:53 AM 54.0 °F 46.9 °F 77% 30.18 in 10.0 mi NW 8.1 mph - N/A   Mostly Cloudy
3:53 AM 51.1 °F 46.9 °F 86% 30.19 in 10.0 mi NW 8.1 mph - N/A   Scattered Clouds
4:53 AM 48.0 °F 46.0 °F 93% 30.20 in 10.0 mi WNW 5.8 mph - N/A   Clear
5:53 AM 48.9 °F 46.0 °F 90% 30.21 in 10.0 mi WNW 5.8 mph - N/A   Clear
6:53 AM 51.1 °F 46.9 °F 86% 30.21 in 10.0 mi NNW 6.9 mph - N/A   Clear
7:53 AM 53.1 °F 48.9 °F 86% 30.24 in 10.0 mi WSW 4.6 mph - N/A   Clear
8:53 AM 57.9 °F 48.9 °F 72% 30.24 in 10.0 mi WNW 6.9 mph - N/A   Clear
9:53 AM 61.0 °F 51.1 °F 70% 30.25 in 10.0 mi NW 6.9 mph - N/A   Clear
10:53 AM 64.0 °F 48.9 °F 58% 30.24 in 10.0 mi WNW 10.4 mph - N/A   Partly Cloudy
11:53 AM 66.0 °F 48.0 °F 52% 30.23 in 10.0 mi NW 10.4 mph - N/A   Scattered Clouds
12:53 PM 68.0 °F 48.0 °F 49% 30.22 in 10.0 mi NNW 12.7 mph - N/A   Partly Cloudy
1:53 PM 69.1 °F 46.9 °F 45% 30.22 in 10.0 mi NNW 6.9 mph 16.1 mph N/A   Partly Cloudy
2:53 PM 69.1 °F 46.9 °F 45% 30.21 in 10.0 mi WNW 10.4 mph - N/A   Clear
3:53 PM 69.1 °F 46.9 °F 45% 30.21 in 10.0 mi North 4.6 mph - N/A   Partly Cloudy
4:53 PM 69.1 °F 46.9 °F 45% 30.22 in 10.0 mi NW 8.1 mph - N/A   Scattered Clouds
5:53 PM 68.0 °F 46.0 °F 45% 30.21 in 10.0 mi Calm Calm - N/A   Clear
6:53 PM 66.9 °F 46.9 °F 49% 30.21 in 10.0 mi NW 3.5 mph - N/A   Clear
7:53 PM 63.0 °F 48.0 °F 58% 30.21 in 10.0 mi NW 3.5 mph - N/A   Clear
8:53 PM 63.0 °F 46.0 °F 54% 30.21 in 10.0 mi WNW 3.5 mph - N/A   Clear
9:53 PM 61.0 °F 46.9 °F 60% 30.21 in 10.0 mi Calm Calm - N/A   Clear
10:53 PM 55.9 °F 48.9 °F 77% 30.21 in 10.0 mi Calm Calm - N/A   Clear
11:53 PM 54.0 °F 48.9 °F 83% 30.22 in 10.0 mi NW 4.6 mph - N/A   Clear